Location: ?????
(42.2640°N, 43.4211°E)
Time: 14:28:43
(UTC+00:00)

Cosmos 372 Rocket - Pass Details

Date: 07 August 2020
Orbit: 738 x 768 km, 74.1° (Epoch: 19 September)

Event Time Altitude Azimuth Distance (km) Brightness Sun altitude
Exits shadow 00:48:14 14° 201° (SSW) 2,016 5.7 -13.2°
Maximum altitude 00:52:44 84° 290° (WNW) 770 4.0 -12.5°
Drops below altitude 10° 00:58:00 10° 19° (NNE) 2,308 7.3 -11.7°
Sets 01:00:23 0° 20° (NNE) 3,242 8.2 -11.4°
